Location: Asheville, NC
(35.6000°N, 82.5500°W)
Time: 08:47:23
(UTC-05:00)

KKS-1 - Pass Details

Date: 15 February 2018
Orbit: 638 x 650 km, 98.3° (Epoch: 19 February)

Event Time Altitude Azimuth Distance (km) Brightness Sun altitude
Rises 05:32:20 0° 176° (S) 2,925 ? -21.9°
Reaches altitude 10° 05:34:33 10° 180° (S) 2,021 ? -21.4°
Maximum altitude 05:38:53 56° 259° (W) 760 ? -20.5°
Enters shadow 05:40:22 37° 317° (NW) 997 ? -20.2°
